Date String (YYYY-MM-DD hh:mm:ss) UTC,Instrument flags,absolute air pressure of the measurement (hPa),sample flow rate (lpm),inlet stack bypass flow (lpm),air temperature of the measurement (°C),ambient temperature measured by the external sensor (°C),aerosol sample conditioner tube jacket temperature (°C),OPC LED temperature (°C),internal box temperature (°C),relative humidity of the measurement (%),span deviation,mass concentration of particles derived from Lorenz-Mie calculation of OPC scattering (μg/m³),mass concentration of particles derived from Lorenz-Mie calculation of OPC scattering (μg/m³),mass concentration of particles derived from Lorenz-Mie calculation of OPC scattering (μg/m³)
DateTimeUTC,F1_M11,P_M11,Q1_M11,Q2_M11,T1_M11,T2_M11,T3_M11,T4_M11,T5_M11,U1_M11,ZSPAN_M11,X0_M11,X2_M11,X1_M11
2023-06-23 09:00:00,SystemResetWarning,0830.1,4.99,000.00,029.9,027.6,000.0,038.6,031.3,34.1,0003.3,0009.15,0004.84,0004.34
2023-06-23 09:01:00,SystemResetWarning,0830.1,5.01,000.00,029.9,027.7,000.0,038.6,031.3,34.2,0003.4,0009.10,0004.86,0004.35
2023-06-23 09:02:00,SystemResetWarning,0830.1,5.02,000.00,029.9,027.9,000.0,038.5,031.3,34.3,0001.6,0009.20,0004.87,0004.36
2023-06-23 09:03:00,SystemResetWarning,0830.1,4.99,000.00,029.9,028.0,000.0,038.5,031.3,34.4,0003.2,0009.43,0004.92,0004.37
2023-06-23 09:04:00,SystemResetWarning,0830.1,5.00,000.00,029.9,028.1,000.0,038.6,031.4,34.4,0003.3,0009.43,0004.93,0004.39
2023-06-23 09:05:00,SystemResetWarning,0830.1,4.99,000.00,030.0,028.2,000.0,038.6,031.4,34.4,0003.0,0009.05,0004.92,0004.39
2023-06-23 09:06:00,SystemResetWarning,0830.1,4.99,000.00,030.0,028.3,000.0,038.6,031.4,34.3,0002.8,0008.94,0004.91,0004.38
2023-06-23 09:07:00,SystemResetWarning,0830.1,5.00,000.00,030.0,028.3,000.0,038.6,031.4,34.1,0002.2,0008.55,0004.90,0004.38
2023-06-23 09:08:00,SystemResetWarning,0830.0,5.00,000.00,030.0,028.4,000.0,038.6,031.5,34.0,0000.0,0008.82,0004.91,0004.37
2023-06-23 09:09:00,SystemResetWarning,0830.0,5.01,000.00,030.0,028.4,000.0,038.6,031.5,33.9,0000.0,0008.94,0004.90,0004.37
2023-06-23 09:10:00,SystemResetWarning,0830.0,5.01,000.00,030.1,028.5,000.0,038.6,031.5,33.8,0000.0,0008.79,0004.90,0004.36
2023-06-23 09:11:00,SystemResetWarning,0830.0,5.00,000.00,030.1,028.5,000.0,038.6,031.5,33.6,0000.0,0008.78,0004.89,0004.36
2023-06-23 09:12:00,SystemResetWarning,0830.0,5.00,000.00,030.1,028.5,000.0,038.6,031.5,33.4,0000.0,0008.83,0004.90,0004.37
2023-06-23 09:13:00,SystemResetWarning,0830.0,5.00,000.00,030.1,028.5,000.0,038.6,031.6,33.4,0000.0,0008.72,0004.89,0004.37
2023-06-23 09:14:00,SystemResetWarning,0830.0,5.00,000.00,030.1,028.6,000.0,038.6,031.6,33.4,0000.0,0008.51,0004.85,0004.37
2023-06-23 09:15:00,SystemResetWarning,0830.0,5.00,000.00,030.1,028.6,000.0,038.6,031.5,33.3,0000.0,0008.47,0004.85,0004.38
2023-06-23 09:16:00,SystemResetWarning,0830.0,5.00,000.00,030.1,028.6,000.0,038.7,031.6,33.2,0000.0,0008.85,0004.89,0004.38
2023-06-23 09:17:00,SystemResetWarning,0830.0,5.00,000.00,030.2,028.6,000.0,038.7,031.6,33.0,0000.0,0009.14,0004.89,0004.39
2023-06-23 09:18:00,SystemResetWarning,0830.0,5.00,000.00,030.2,028.6,000.0,038.7,031.6,33.0,0000.0,0009.18,0004.90,0004.39
2023-06-23 09:19:00,SystemResetWarning,0830.0,5.00,000.00,030.2,028.6,000.0,038.7,031.6,32.9,0000.0,0008.94,0004.88,0004.40
2023-06-23 09:20:00,SystemResetWarning,0829.9,5.00,000.00,030.2,028.7,000.0,038.7,031.7,33.1,0000.0,0008.83,0004.90,0004.40
2023-06-23 09:21:00,SystemResetWarning,0829.9,5.00,000.00,030.2,028.7,000.0,038.7,031.7,33.0,0000.0,0009.00,0004.87,0004.40
2023-06-23 09:22:00,SystemResetWarning,0829.9,5.00,000.00,030.2,028.7,000.0,038.7,031.7,33.0,0000.0,0009.43,0004.86,0004.39
2023-06-23 09:23:00,SystemResetWarning,0829.8,5.00,000.00,030.3,028.7,000.0,038.7,031.7,33.0,0000.0,0010.35,0004.87,0004.38
2023-06-23 09:24:00,SystemResetWarning,0829.8,5.00,000.00,030.3,028.7,000.0,038.8,031.7,33.0,0000.0,0010.42,0004.89,0004.39
2023-06-23 09:25:00,SystemResetWarning,0829.8,5.00,000.00,030.3,028.8,000.0,038.8,031.7,32.8,0000.0,0010.44,0004.91,0004.39
2023-06-23 09:26:00,SystemResetWarning,0829.8,5.00,000.00,030.3,028.8,000.0,038.8,031.8,32.9,0000.0,0011.11,0004.92,0004.38
2023-06-23 09:27:00,SystemResetWarning,0829.8,5.00,000.00,030.3,028.8,000.0,038.8,031.7,32.8,0000.0,0011.05,0004.91,0004.38
2023-06-23 09:28:00,SystemResetWarning,0829.8,5.00,000.00,030.3,028.8,000.0,038.8,031.8,32.7,0000.0,0010.43,0004.89,0004.38
2023-06-23 09:29:00,SystemResetWarning,0829.8,5.01,000.00,030.3,028.8,000.0,038.8,031.8,32.8,0000.0,0010.47,0004.89,0004.39
2023-06-23 09:30:00,SystemResetWarning,0829.7,4.98,000.00,030.4,028.0,000.0,038.8,031.8,32.7,0001.8,0010.41,0004.91,0004.40
2023-06-23 09:31:00,SystemResetWarning,0829.7,5.00,000.00,030.3,025.8,000.0,038.7,031.8,32.8,0000.3,0010.46,0004.94,0004.40
2023-06-23 09:32:00,SystemResetWarning,0829.7,5.01,000.00,030.3,025.0,000.0,038.7,031.6,33.0,0000.0,0010.49,0004.97,0004.40
2023-06-23 09:33:00,SystemResetWarning,0829.7,5.00,000.00,030.1,025.2,000.0,038.7,031.2,33.4,0000.0,0009.93,0005.03,0004.42
2023-06-23 09:34:00,SystemResetWarning,0829.7,5.00,000.00,030.0,025.6,000.0,038.7,031.2,33.7,0000.1,0009.32,0005.03,0004.42
2023-06-23 09:35:00,SystemResetWarning,0829.7,5.01,000.00,030.0,026.0,000.0,038.7,031.1,33.7,0002.3,0008.92,0005.02,0004.42
2023-06-23 09:36:00,SystemResetWarning,0829.7,5.00,000.00,030.0,026.5,000.0,038.6,031.1,33.7,0002.1,0008.92,0005.02,0004.42
2023-06-23 09:37:00,SystemResetWarning,0829.7,5.00,000.00,029.9,026.8,000.0,038.6,031.2,33.7,0001.2,0008.58,0005.03,0004.43
2023-06-23 09:38:00,SystemResetWarning,0829.7,5.00,000.00,029.9,027.1,000.0,038.6,031.2,33.7,0000.0,0008.33,0005.04,0004.44
2023-06-23 09:39:00,SystemResetWarning,0829.7,4.99,000.00,029.9,027.4,000.0,038.6,031.3,33.7,0000.0,0008.39,0005.06,0004.44
2023-06-23 09:40:00,SystemResetWarning,0829.7,4.99,000.00,029.9,027.6,000.0,038.6,031.3,33.7,0000.0,0008.49,0005.09,0004.45
2023-06-23 09:41:00,SystemResetWarning,0829.7,5.01,000.00,029.9,027.8,000.0,038.6,031.3,33.7,0000.0,0008.43,0005.08,0004.45
2023-06-23 09:42:00,SystemResetWarning,0829.7,5.00,000.00,029.9,027.9,000.0,038.6,031.4,33.5,0000.0,0008.41,0005.08,0004.45
2023-06-23 09:43:00,SystemResetWarning,0829.7,4.99,000.00,030.0,028.0,000.0,038.6,031.4,33.5,0000.0,0008.47,0005.09,0004.47
2023-06-23 09:44:00,SystemResetWarning,0829.7,5.00,000.00,030.0,028.1,000.0,038.6,031.4,33.6,0000.0,0008.41,0005.04,0004.47
2023-06-23 09:45:00,SystemResetWarning,0829.7,5.00,000.00,030.0,028.2,000.0,038.6,031.4,33.6,0000.5,0008.36,0005.05,0004.49
2023-06-23 09:46:00,SystemResetWarning,0829.7,5.01,000.00,030.0,028.3,000.0,038.6,031.4,33.7,0001.7,0008.60,0005.05,0004.50
2023-06-23 09:47:00,SystemResetWarning,0829.7,5.01,000.00,030.0,028.3,000.0,038.6,031.5,33.7,0002.0,0008.81,0005.08,0004.51
2023-06-23 09:48:00,SystemResetWarning,0829.7,5.01,000.00,030.0,028.4,000.0,038.6,031.5,33.6,0002.3,0008.77,0005.08,0004.52
2023-06-23 09:49:00,SystemResetWarning,0829.7,5.00,000.00,030.0,028.4,000.0,038.6,031.5,33.6,0002.6,0008.63,0005.06,0004.53
2023-06-23 09:50:00,SystemResetWarning,0829.7,4.99,000.00,030.1,028.5,000.0,038.6,031.5,33.6,0002.6,0008.99,0005.07,0004.54
2023-06-23 09:51:00,SystemResetWarning,0829.7,4.99,000.00,030.1,028.5,000.0,038.6,031.6,33.5,0003.0,0009.14,0005.04,0004.53
2023-06-23 09:52:00,SystemResetWarning,0829.6,5.00,000.00,030.1,028.5,000.0,038.6,031.6,33.4,0002.8,0009.22,0005.07,0004.53
2023-06-23 09:53:00,SystemResetWarning,0829.6,5.00,000.00,030.1,028.5,000.0,038.6,031.6,33.4,0002.0,0009.14,0005.04,0004.54
2023-06-23 09:54:00,SystemResetWarning,0829.6,5.01,000.00,030.1,028.6,000.0,038.6,031.6,33.4,0002.3,0009.15,0005.04,0004.54
2023-06-23 09:55:00,SystemResetWarning,0829.6,5.00,000.00,030.1,028.6,000.0,038.7,031.6,33.4,0002.7,0009.19,0005.05,0004.54
2023-06-23 09:56:00,SystemResetWarning,0829.5,5.00,000.00,030.2,028.6,000.0,038.7,031.6,33.4,0002.7,0009.17,0005.04,0004.54
2023-06-23 09:57:00,SystemResetWarning,0829.4,4.99,000.00,030.2,028.6,000.0,038.7,031.7,33.4,0002.9,0008.91,0005.04,0004.55
2023-06-23 09:58:00,SystemResetWarning,0829.3,4.99,000.00,030.2,028.7,000.0,038.7,031.7,33.3,0002.4,0008.64,0005.01,0004.55
2023-06-23 09:59:00,SystemResetWarning,0829.3,5.00,000.00,030.2,028.7,000.0,038.7,031.7,33.3,0001.6,0008.70,0005.00,0004.55
